Location: Beuerbach
(48.1459°N, 10.9174°E)
Time: 04:05:23
(UTC+00:00)

BREEZE-M R/B - Pass Details

Date: 23 May 2024
Orbit: 669 x 26486 km, 48.9° (Epoch: 13 June)

Event Time Altitude Azimuth Distance (km) Brightness Sun altitude
Exits shadow 00:57:39 25° 182° (S) 1,813 4.4 -17.3°
Maximum altitude 01:00:17 40° 129° (SE) 1,761 4.7 -17.1°
Drops below altitude 10° 01:13:06 10° 65° (ENE) 6,751 8.6 -16.1°
Sets 01:23:43 0° 62° (ENE) 10,709 9.9 -15.3°
